Borger, TX

6:50 PM CST on January 21, 2018 (GMT -0600)
Hutchinson County

Weather History for KBGD - June, 2013

Change the Weather History Date:

Saturday, June 1, 2013

  Actual Average Record
Temperature  
Mean Temperature 71 °F 73 °F  
Max Temperature 83 °F 86 °F 103 °F (1998)
Min Temperature 58 °F 60 °F 46 °F (1983)
Degree Days  
Heating Degree Days 0 0  
Month to date heating degree days 0 0  
Since 1 June heating degree days 0 0  
Since 1 July heating degree days 3592 3763  
Cooling Degree Days 6 8  
Month to date cooling degree days 6 8  
Year to date cooling degree days 294 205  
Since 1 June cooling degree days 6 8  
Growing Degree Days 20 (Base 50)    
Moisture  
Dew Point 39 °F    
Average Humidity 36    
Maximum Humidity 56    
Minimum Humidity 15    
Precipitation  
Precipitation 0.00 in 0.10 in 1.12 in (1991)
Month to date precipitation 0.00 0.10  
Year to date precipitation 4.47 7.15  
Snow  
Snow 0.00 in - T in (1952)
Month to date snowfall 0.0  
Since 1 June snowfall 0.0  
Since 1 July snowfall 27.5  
Snow Depth 0.00 in    
Sea Level Pressure  
Sea Level Pressure 29.93 in    
Wind  
Wind Speed 13 mph (NNE)    
Max Wind Speed 25 mph    
Max Gust Speed 32 mph    
Visibility 10 miles    
Events      
T = Trace of Precipitation, MM = Missing Value Source: NWS Daily Summary

Daily Weather History Graph

Daily Weather History Graph

Search for Another Location

Airport or City:

Trip Planner

Search our weather history database for the weather conditions in past years. The results will help you decide how hot, cold, wet, or windy it might be!

Date:

Astronomy

Jun. 01, 2013 Rise Set
Actual Time 6:30 AM CDT 8:56 PM CDT
Civil Twilight 6:01 AM CDT 9:25 PM CDT
Nautical Twilight 5:24 AM CDT 10:02 PM CDT
Astronomical Twilight 4:44 AM CDT 10:42 PM CDT
Moon 2:15 AM CDT (6/1) 2:39 PM CDT (6/1)
Length of Visible Light 15h 24m
Length of Day
14h 25m
Last Quarter, 40% of the Moon is Illuminated
Jun 1
Last Quarter
Jun 8
New
Jun 16
First Quarter
Jun 23
Full
Jun 29
Last Quarter

Hourly Weather History & Observations

Time (CDT) Temp. Dew Point Humidity Pressure Visibility Wind Dir Wind Speed Gust Speed Precip Events Conditions
12:51 AM 71.1 °F 42.1 °F 35% 29.74 in 10.0 mi NE 13.8 mph 24.2 mph N/A   Partly Cloudy
1:51 AM 70.0 °F 46.9 °F 44% 29.73 in 10.0 mi East 9.2 mph 19.6 mph N/A   Clear
2:51 AM 68.0 °F 48.9 °F 50% 29.74 in 10.0 mi ESE 4.6 mph - N/A   Partly Cloudy
3:51 AM 64.0 °F 46.0 °F 52% 29.76 in 10.0 mi NNW 5.8 mph - N/A   Clear
4:51 AM 63.0 °F 46.9 °F 56% 29.80 in 10.0 mi North 8.1 mph - N/A   Clear
5:51 AM 61.0 °F 43.0 °F 52% 29.86 in 10.0 mi NE 12.7 mph - N/A   Clear
6:51 AM 57.9 °F 41.0 °F 53% 29.91 in 10.0 mi NNE 13.8 mph - N/A   Clear
7:51 AM 59.0 °F 39.9 °F 49% 29.95 in 10.0 mi North 15.0 mph - N/A   Clear
8:51 AM 63.0 °F 39.9 °F 43% 29.98 in 10.0 mi North 15.0 mph - N/A   Clear
9:51 AM 66.9 °F 39.9 °F 37% 30.01 in 10.0 mi NNE 16.1 mph - N/A   Clear
10:51 AM 69.1 °F 37.9 °F 32% 30.01 in 10.0 mi North 23.0 mph 29.9 mph N/A   Clear
11:51 AM 73.0 °F 37.0 °F 27% 30.01 in 10.0 mi North 18.4 mph 31.1 mph N/A   Clear
12:51 PM 75.9 °F 36.0 °F 23% 29.99 in 10.0 mi North 18.4 mph 31.1 mph N/A   Clear
1:51 PM 77.0 °F 34.0 °F 21% 29.99 in 10.0 mi NNW 17.3 mph 24.2 mph N/A   Clear
2:51 PM 79.0 °F 33.1 °F 19% 29.97 in 10.0 mi NW 12.7 mph 21.9 mph N/A   Clear
3:51 PM 82.0 °F 32.0 °F 16% 29.96 in 10.0 mi North 20.7 mph 29.9 mph N/A   Clear
4:51 PM 82.0 °F 30.9 °F 16% 29.96 in 10.0 mi NNW 18.4 mph 25.3 mph N/A   Clear
5:51 PM 82.0 °F 33.1 °F 17% 29.96 in 10.0 mi North 19.6 mph 24.2 mph N/A   Clear
6:51 PM 81.0 °F 35.1 °F 19% 29.97 in 10.0 mi North 12.7 mph - N/A   Clear
7:51 PM 79.0 °F 35.1 °F 20% 29.98 in 10.0 mi North 13.8 mph - N/A   Clear
8:51 PM 75.0 °F 37.0 °F 25% 30.00 in 10.0 mi NNE 10.4 mph - N/A   Clear
9:51 PM 72.0 °F 37.9 °F 29% 30.02 in 10.0 mi NE 8.1 mph - N/A   Clear
10:51 PM 69.1 °F 39.0 °F 33% 30.05 in 10.0 mi NE 5.8 mph - N/A   Clear
11:51 PM 66.0 °F 39.9 °F 38% 30.07 in 10.0 mi ENE 5.8 mph - N/A   Clear